Regional Weather Roundup
Issued by NWS Charleston, SC

Current Version | Previous Version | Graphics & Text | Print | Product List | Glossary On
Versions: 1 2 3 4 5 6 7 8 9 10 11 12 13 14 15 16 17 18 19 20 21 22 23 24 25 26 27 28 29 30 31 32 33 34 35 36 37 38 39 40 41 42 43 44 45 46 47 48 49 50
726
ASUS42 KCHS 200312
RWRCHS

Regional Weather Roundup
National Weather Service Charleston SC
1100 PM EDT THU APR 19 2018

NOTE: "fair" indicates few or no clouds below 12,000 feet with no
significant weather and/or obstructions to visibility.

Not all stations are quality controlled. Use data with caution,
especially dewpoint observations.

SCZ027-030-031-034>040-042>050-200400-
...Southeast South Carolina...

CITY           SKY/WX    TMP DP  RH WIND       PRES   REMARKS
N Charleston   FAIR      66  40  38 N14G24    30.07R
Waterfront Prk   N/A     71  43  36 N13G20    29.89R
Mount Pleasant FAIR      66  43  42 N9        30.07R
Johns Island   FAIR      68  43  40 N12G18    30.06R
Pinopolis        N/A     64  46  52 N18G25    29.98R
Moncks Corner  FAIR      63  34  34 NE12G24   30.10R
Summerville    FAIR      63  41  45 N9        30.10R
Beaufort MCAS  FAIR      68  42  38 NW7       30.06R
Beaufort Arpt  FAIR      68  41  37 N7        30.06R
Hilton Head Is FAIR      70  43  37 N8G16     30.07R
Walterboro     FAIR      63  39  42 N6        30.09R
Allendale      FAIR      63  39  42 N7G13     30.08R

...Southern Midlands and Pee Dee...

CITY           SKY/WX    TMP DP  RH WIND       PRES   REMARKS
Georgetown     FAIR      61  34  36 N13G23    30.09R
Kingstree      FAIR      57  30  35 N7        30.13R
Orangeburg     FAIR      60  35  39 N13G18    30.12R
Barnwell       FAIR      63  36  36 N12G21    30.11R
Aiken          FAIR      55  34  44 N10G16    30.16R
Manning        FAIR      54  28  37 N18G25    30.13R
Columbia       FAIR      59  34  39 N8        30.14R
Sumter         FAIR      56  30  37 N10       30.12R
Florence       FAIR      56  32  40 N10       30.15R
Myrtle Beach   FAIR      61  35  37 N20G28    30.11R
N Myrtle Beach FAIR      59  31  34 N17G30    30.10R

$$

GAZ063-065-086>088-099>101-113>116-118-119-134>141-150-200400-
...Southeast Georgia...

CITY           SKY/WX    TMP DP  RH WIND       PRES   REMARKS
Savannah Arpt  FAIR      68  42  38 N13       30.07R
Hunter AAF     FAIR      71  42  35 N13       30.04R
Fort Stewart   FAIR      68  43  40 NW9       30.05R
Statesboro     FAIR      62  40  43 N7        30.09R
Sylvania       FAIR      63  45  51 N6        30.10R
Claxton        FAIR      68  44  42 NW7       30.09R

...CSRA, Central and far Southeast Georgia...

CITY           SKY/WX    TMP DP  RH WIND       PRES   REMARKS
Thomson        FAIR      56  40  55 N6        30.19R
Augusta-Bush   FAIR      60  40  47 N10       30.12R
Augusta-Daniel FAIR      62  38  40 N8        30.13R
Swainsboro     FAIR      61  41  48 N8        30.12R
Vidalia        FAIR      64  45  48 N15       30.10R
Eastman        FAIR      62  31  31 N5        30.14R
Hazlehurst     FAIR      66  42  40 N7        30.09R
Alma           FAIR      68  45  43 N8        30.07R
Waycross       FAIR      68  47  47 N6        30.06R
Jesup          MOCLDY    72  48  43 N6        30.06R
Baxley         FAIR      66  43  42 N10       30.08R
Brunswick      FAIR      70  55  60 W6        30.05R
Saint Simons   FAIR      73  59  61 NW3       30.03R

$$

SCZ027-028-034-036>038-045-046-048>050-GAZ119-141-200400-
...Lake and Supplemental Coastal Observations...

STATION/POSITION TIME  TEMP    WIND        PRES    WAVE   SWELL
                       AIR SEA DIR/SP/G            HT/PER HT/PER/DIR
                 (UTC) (F)     (DEG/KT/KT) (MB)    (FT/S) (FT/S/D)
Winyah Bay       0145   68     350/  9     1017.0
Lake Murray      0220   58      10/  4/  9 1019.6R
ACE Basin NERRS  0145   72     350/  2       N/A
Fort Pulaski     0236   70 66  340/  8/ 10 1017.8R
Sapelo Island    0200   71        CALM     1017.0

$$

ANZ835-935-AMZ111-154-330-350-352-354-370-450-454-472-200400-
...C-MAN and Buoy Observations...

STATION/POSITION TIME  TEMP    WIND        PRES    WAVE   SWELL
                       AIR SEA DIR/SP/G            HT/PER HT/PER/DIR
                 (UTC) (F)     (DEG/KT/KT) (MB)    (FT/S) (FT/S/D)
Buoy 41004       0250   69 68  360/ 16/ 19 1017.0R   4/ 6   2/160/ 9
Buoy 41008       0250   71 66  260/  4/  6 1016.5R   2/ 5   2/170/ 5
Folly Beach CMAN 0200   72     320/  7/ 11 1017.2R
Capers Nearshore 0208   68 63  340/ 10/ 16 1016.9R
Fripp Nearshore  0208   70 65  330/  8/ 14 1016.5R


STATION/POSITION TIME  TEMP    WIND        PRES    WAVE   SWELL
                       AIR SEA DIR/SP/G            HT/PER HT/PER/DIR
                 (UTC) (F)     (DEG/KT/KT) (MB)    (FT/S) (FT/S/D)
5E St. Marys GA  0300      67                N/A     2/ 9
Frying Pan Buoy  0250   65 66  360/ 21/ 29 1017.7R   5/ 7   3/180/ 7
Buoy 41025       0300   58 67   20/ 25/ 31 1018.4
Cape Lookout NC  0200          340/ 19/ 23 1018.1R
Buoy 41002       0250   73 71  240/ 16/ 19 1016.1F   8/ 8   5/280/ 8
Buoy 41010       0250   74 73  180/ 10/ 12 1018.6R   2/ 5   2/110/ 8
St Augustine FL  0300   71 68  240/  7/ 10 1018.4R


$$




USA.gov is the U.S. government's official web portal to all federal, state and local government web resources and services.